{"data":{"norad_id":81816,"epoch":"2026-05-24T00:31:50.412000Z","epoch_age_seconds":163083,"freshness":"FRESH","line1":"1 81816U          26144.02211125  .00001234  00000+0  95207-3 0  9990","line2":"2 81816  66.2377 251.3801 0167647 153.7026 207.2682 13.89924441631891","mean_motion":13.89924441,"eccentricity":0.0167647,"inclination_deg":66.2377,"raan_deg":251.3801,"arg_perigee_deg":153.7026,"mean_anomaly_deg":207.2682,"bstar":0.00095207,"rev_number":63189,"period_min":103.60275404352,"perigee_km":806.39542123145,"apogee_km":1051.3958411355,"semimajor_km":7307.0326311835,"source":"CELESTRAK","updated_at":"2026-05-25T13:38:11.084427Z"}}